Find Qianfan Xingzuo 01-06

NORAD ID: 60384 Int'l Des: 2024-140 Owner: YUANX Country: CN Constellation: spacesail operational
LEOCIRCULARPOLAR

現在のビュー

3D地球を読み込み中...

About Qianfan Xingzuo 01-06

Qianfan Xingzuo 01-06 (NORAD 60384) is a spacesail constellation satellite launched Aug 6, 2024 by YUANX of CN. It operates in LEO, CIRCULAR, POLAR orbit with a mass of 267.00 kg.

Qianfan Xingzuo 01-06について

説明を読み込み中...

次回通過

Passes for default location (London). Set your location on the main map for personalized predictions.

高度履歴

Loading altitude history...

軌道要素

1 60384U 24140F 26194.63259318 .00000097 00000-0 13114-3 0 9990
2 60384 88.9739 276.9441 0010914 305.1232 54.8896 13.51018611 96249
Epoch: Jul 13, 2026 • Age: 11 hours

現在のステータス

高度 1089.4 km
遠地点 / 近地点 N/A
速度 7.31 km/s
衛星直下点 81.04°N, 123.4°E
打ち上げ日 Aug 6, 2024
運用期間 1.9 years
タイプ internet

技術仕様

分類 Payload
質量 267.00 kg
乾燥質量 267.00 kg
総質量 267.00 kg
長さ 0.30 m
直径 3.00 m
スパン 10.00 m
形状 Box+pan
製造者 SECM
バスタイプ Qianfan
フェーズステータス In Orbit
所有者/国 YUANX/CN

Most Searched